QFA426 YPAD-YSSY

Flight info

Callsign QFA426
Flight time 1h 35m
Altitude 35000
Route AVDEN1 AVDEN H247 CULIN Y59 RIVET RIVET4
Aircraft B738/M-SDE2E3FGHIRWXY/LB1

Departure

Time 2026-05-04 03:59
Airport Adelaide International Airport (YPAD)

Arrival

Time 2026-05-04 05:35
Airport Sydney Kingsford Smith International Airport (YSSY)
Time Latitude Longitude Altitude Speed Heading
2026-05-04 03:34 -34.94059 138.53663 29 ft 0 kts 320°
2026-05-04 03:51 -34.94063 138.53668 38 ft 4 kts 322°
2026-05-04 03:51 -34.94086 138.53685 26 ft 4 kts 332°
2026-05-04 03:51 -34.94105 138.53703 30 ft 2 kts 297°
2026-05-04 03:52 -34.94110 138.53728 28 ft 4 kts 267°
2026-05-04 03:52 -34.94110 138.53737 29 ft 0 kts 269°
2026-05-04 03:52 -34.94106 138.53754 29 ft 0 kts 231°
2026-05-04 03:55 -34.94106 138.53753 29 ft 0 kts 231°
2026-05-04 03:55 -34.94115 138.53740 25 ft 4 kts 229°
2026-05-04 03:55 -34.94144 138.53699 25 ft 8 kts 230°
2026-05-04 03:55 -34.94183 138.53647 26 ft 9 kts 214°
2026-05-04 03:56 -34.94240 138.53655 26 ft 9 kts 138°
2026-05-04 03:56 -34.94240 138.53727 27 ft 10 kts 57°
2026-05-04 03:56 -34.94194 138.53800 25 ft 12 kts 52°
2026-05-04 03:56 -34.94137 138.53880 27 ft 13 kts 48°
2026-05-04 03:57 -34.94077 138.53966 25 ft 13 kts 50°
2026-05-04 03:57 -34.94019 138.54051 25 ft 13 kts 50°
2026-05-04 03:57 -34.93968 138.54126 28 ft 9 kts 50°
2026-05-04 03:57 -34.93957 138.54194 25 ft 9 kts 112°
2026-05-04 03:58 -34.94058 138.54300 26 ft 11 kts 158°
2026-05-04 03:58 -34.94104 138.54268 29 ft 6 kts 229°
2026-05-04 03:58 -34.94245 138.54063 26 ft 68 kts 230°
2026-05-04 03:59 -34.94694 138.53407 29 ft 133 kts 230°
2026-05-04 03:59 -34.95378 138.52433 422 ft 156 kts 231°
2026-05-04 03:59 -34.96097 138.51392 1073 ft 165 kts 231°
2026-05-04 03:59 -34.96788 138.50375 1695 ft 142 kts 233°
2026-05-04 04:00 -34.97449 138.49405 1837 ft 161 kts 233°
2026-05-04 04:00 -34.98225 138.48268 2164 ft 189 kts 232°
2026-05-04 04:00 -34.99119 138.46961 2422 ft 210 kts 232°
2026-05-04 04:00 -35.00080 138.45559 2853 ft 223 kts 232°
2026-05-04 04:01 -35.01115 138.44050 3326 ft 238 kts 232°
2026-05-04 04:01 -35.02317 138.42638 4060 ft 246 kts 212°
2026-05-04 04:01 -35.03973 138.42082 4949 ft 253 kts 186°
2026-05-04 04:01 -35.05740 138.42495 5679 ft 268 kts 160°
2026-05-04 04:02 -35.07312 138.43748 6477 ft 277 kts 147°
2026-05-04 04:02 -35.08873 138.45233 7192 ft 284 kts 146°
2026-05-04 04:02 -35.10193 138.47032 7971 ft 297 kts 121°
2026-05-04 04:02 -35.10709 138.49489 8846 ft 305 kts 93°
2026-05-04 04:03 -35.10598 138.52092 9696 ft 310 kts 86°
2026-05-04 04:03 -35.10402 138.54745 10374 ft 320 kts 86°
2026-05-04 04:03 -35.10189 138.57562 10588 ft 346 kts 86°
2026-05-04 04:03 -35.09980 138.60586 10877 ft 367 kts 86°
2026-05-04 04:04 -35.09772 138.63742 11486 ft 376 kts 87°
2026-05-04 04:04 -35.09567 138.66949 12258 ft 381 kts 87°
2026-05-04 04:04 -35.09361 138.70195 13058 ft 386 kts 88°
2026-05-04 04:04 -35.09152 138.73473 13908 ft 389 kts 88°
2026-05-04 04:05 -35.08942 138.76747 14603 ft 395 kts 88°
2026-05-04 04:05 -35.08726 138.80118 15341 ft 400 kts 88°
2026-05-04 04:05 -35.08505 138.83524 16088 ft 404 kts 88°
2026-05-04 04:05 -35.08282 138.86971 16804 ft 410 kts 88°
2026-05-04 04:06 -35.08054 138.90459 17582 ft 413 kts 88°
2026-05-04 04:06 -35.07823 138.93975 18333 ft 418 kts 88°
2026-05-04 04:06 -35.07588 138.97529 18943 ft 423 kts 89°
2026-05-04 04:06 -35.07350 139.01122 19546 ft 427 kts 89°
2026-05-04 04:07 -35.07108 139.04757 20183 ft 431 kts 89°
2026-05-04 04:07 -35.06863 139.08423 20804 ft 435 kts 89°
2026-05-04 04:07 -35.06614 139.12132 21424 ft 440 kts 89°
2026-05-04 04:07 -35.06362 139.15870 22005 ft 445 kts 89°
2026-05-04 04:08 -35.06105 139.19652 22582 ft 449 kts 89°
2026-05-04 04:08 -35.05846 139.23463 23160 ft 453 kts 89°
2026-05-04 04:08 -35.05582 139.27310 23689 ft 457 kts 89°
2026-05-04 04:08 -35.05318 139.31147 24118 ft 461 kts 89°
2026-05-04 04:09 -35.05046 139.35070 24559 ft 465 kts 89°
2026-05-04 04:09 -35.04771 139.39017 24998 ft 469 kts 89°
2026-05-04 04:09 -35.04492 139.43007 25424 ft 473 kts 89°
2026-05-04 04:09 -35.04210 139.47020 25835 ft 477 kts 89°
2026-05-04 04:10 -35.03925 139.51063 26235 ft 481 kts 88°
2026-05-04 04:10 -35.03635 139.55144 26648 ft 485 kts 88°
2026-05-04 04:10 -35.03342 139.59265 27020 ft 489 kts 88°
2026-05-04 04:10 -35.03048 139.63359 27396 ft 492 kts 88°
2026-05-04 04:11 -35.02748 139.67534 27696 ft 497 kts 88°
2026-05-04 04:11 -35.02443 139.71751 28045 ft 501 kts 87°
2026-05-04 04:11 -35.02135 139.75993 28450 ft 504 kts 87°
2026-05-04 04:11 -35.01822 139.80268 28750 ft 508 kts 87°
2026-05-04 04:12 -35.01505 139.84590 29080 ft 512 kts 87°
2026-05-04 04:12 -35.01185 139.88929 29431 ft 515 kts 87°
2026-05-04 04:12 -35.00862 139.93288 29784 ft 518 kts 87°
2026-05-04 04:12 -35.00535 139.97678 30208 ft 519 kts 86°
2026-05-04 04:13 -35.00206 140.02061 30583 ft 519 kts 86°
2026-05-04 04:13 -34.99877 140.06438 30947 ft 518 kts 85°
2026-05-04 04:13 -34.99547 140.10804 31393 ft 516 kts 85°
2026-05-04 04:13 -34.99217 140.15149 31847 ft 514 kts 85°
2026-05-04 04:14 -34.98886 140.19492 32298 ft 513 kts 85°
2026-05-04 04:14 -34.98554 140.23829 32624 ft 515 kts 85°
2026-05-04 04:14 -34.98224 140.28130 32942 ft 515 kts 85°
2026-05-04 04:14 -34.97888 140.32476 33376 ft 514 kts 84°
2026-05-04 04:15 -34.97618 140.36862 33829 ft 511 kts 89°
2026-05-04 04:15 -34.97576 140.41136 34223 ft 509 kts 91°
2026-05-04 04:15 -34.97629 140.45462 34533 ft 510 kts 91°
2026-05-04 04:15 -34.97717 140.49791 34786 ft 511 kts 91°
2026-05-04 04:16 -34.97803 140.54127 35026 ft 511 kts 91°
2026-05-04 04:16 -34.97873 140.58491 34993 ft 515 kts 91°
2026-05-04 04:16 -34.97959 140.67184 35002 ft 509 kts 90°
2026-05-04 04:17 -34.98007 140.75803 35003 ft 508 kts 90°
2026-05-04 04:17 -34.98047 140.84387 35005 ft 509 kts 90°
2026-05-04 04:18 -34.98086 140.93026 35007 ft 510 kts 89°
2026-05-04 04:18 -34.98120 141.01691 35006 ft 510 kts 89°
2026-05-04 04:19 -34.98148 141.10288 34981 ft 510 kts 89°
2026-05-04 04:19 -34.98170 141.18929 34995 ft 509 kts 88°
2026-05-04 04:20 -34.98186 141.27570 34986 ft 509 kts 88°
2026-05-04 04:20 -34.98196 141.36179 34998 ft 508 kts 88°
2026-05-04 04:21 -34.98201 141.44796 34992 ft 508 kts 88°
2026-05-04 04:21 -34.98198 141.53412 34987 ft 507 kts 88°
2026-05-04 04:22 -34.98188 141.62018 34985 ft 506 kts 88°
2026-05-04 04:22 -34.98172 141.70596 34983 ft 506 kts 88°
2026-05-04 04:23 -34.98152 141.79118 34987 ft 506 kts 87°
2026-05-04 04:23 -34.98125 141.87691 34988 ft 506 kts 87°
2026-05-04 04:24 -34.98092 141.96292 34982 ft 506 kts 87°
2026-05-04 04:24 -34.98053 142.04825 34991 ft 506 kts 86°
2026-05-04 04:25 -34.98008 142.13411 34966 ft 507 kts 86°
2026-05-04 04:25 -34.97956 142.22058 34982 ft 506 kts 86°
2026-05-04 04:26 -34.97900 142.30597 34994 ft 507 kts 86°
2026-05-04 04:26 -34.97836 142.39197 34979 ft 508 kts 86°
2026-05-04 04:27 -34.97767 142.47819 34982 ft 508 kts 86°
2026-05-04 04:27 -34.97691 142.56444 34977 ft 508 kts 85°
2026-05-04 04:28 -34.97609 142.65063 34982 ft 509 kts 85°
2026-05-04 04:28 -34.97522 142.73685 34975 ft 508 kts 85°
2026-05-04 04:29 -34.97429 142.82257 34982 ft 509 kts 85°
2026-05-04 04:29 -34.97329 142.90887 34986 ft 509 kts 85°
2026-05-04 04:30 -34.97223 142.99529 34981 ft 509 kts 85°
2026-05-04 04:30 -34.97110 143.08179 34981 ft 510 kts 85°
2026-05-04 04:31 -34.96993 143.16824 34982 ft 510 kts 85°
2026-05-04 04:31 -34.96870 143.25479 34980 ft 510 kts 85°
2026-05-04 04:32 -34.96763 143.34134 34979 ft 510 kts 85°
2026-05-04 04:32 -34.96658 143.42792 34984 ft 510 kts 85°
2026-05-04 04:33 -34.96546 143.51380 34974 ft 510 kts 84°
2026-05-04 04:33 -34.96426 143.60032 34986 ft 510 kts 84°
2026-05-04 04:34 -34.96298 143.68679 34984 ft 509 kts 84°
2026-05-04 04:34 -34.96165 143.77318 34984 ft 509 kts 84°
2026-05-04 04:35 -34.96026 143.85933 34985 ft 508 kts 84°
2026-05-04 04:35 -34.95881 143.94537 34991 ft 507 kts 84°
2026-05-04 04:36 -34.95729 144.03135 34988 ft 507 kts 84°
2026-05-04 04:36 -34.95599 144.10282 34992 ft 507 kts 84°
2026-05-04 04:37 -34.95241 144.28880 34993 ft 507 kts 83°
2026-05-04 04:38 -34.95095 144.36030 34997 ft 507 kts 83°
2026-05-04 04:38 -34.94915 144.44639 34996 ft 508 kts 83°
2026-05-04 04:39 -34.94729 144.53198 34994 ft 508 kts 83°
2026-05-04 04:39 -34.94537 144.61808 34995 ft 508 kts 83°
2026-05-04 04:40 -34.94338 144.70417 34996 ft 508 kts 83°
2026-05-04 04:40 -34.94133 144.79046 34989 ft 508 kts 82°
2026-05-04 04:41 -34.93922 144.87644 35002 ft 508 kts 82°
2026-05-04 04:41 -34.93705 144.96250 34972 ft 508 kts 82°
2026-05-04 04:42 -34.93485 145.04811 34993 ft 507 kts 82°
2026-05-04 04:42 -34.93254 145.13399 35002 ft 508 kts 82°
2026-05-04 04:43 -34.93010 145.22013 35000 ft 508 kts 82°
2026-05-04 04:43 -34.92760 145.30633 34995 ft 508 kts 82°
2026-05-04 04:44 -34.92505 145.39241 35001 ft 508 kts 81°
2026-05-04 04:44 -34.92247 145.47805 35003 ft 509 kts 81°
2026-05-04 04:45 -34.91981 145.56418 34970 ft 509 kts 81°
2026-05-04 04:47 -34.91001 145.86578 35006 ft 509 kts 81°
2026-05-04 04:47 -34.90707 145.95200 34999 ft 509 kts 81°
2026-05-04 04:48 -34.90407 146.03818 34997 ft 509 kts 81°
2026-05-04 04:49 -34.89633 146.25304 35006 ft 508 kts 80°
2026-05-04 04:49 -34.89312 146.33913 35002 ft 508 kts 80°
2026-05-04 04:50 -34.88985 146.42504 35018 ft 508 kts 80°
2026-05-04 04:50 -34.88653 146.51100 35013 ft 508 kts 80°
2026-05-04 04:51 -34.88315 146.59679 35021 ft 507 kts 80°
2026-05-04 04:51 -34.87969 146.68290 35018 ft 507 kts 80°
2026-05-04 04:52 -34.87621 146.76815 34987 ft 508 kts 80°
2026-05-04 04:52 -34.87265 146.85415 35009 ft 507 kts 79°
2026-05-04 04:53 -34.86902 146.94011 35018 ft 508 kts 79°
2026-05-04 04:53 -34.86533 147.02594 35023 ft 508 kts 79°
2026-05-04 04:54 -34.86158 147.11183 35006 ft 509 kts 79°
2026-05-04 04:54 -34.85778 147.19745 35024 ft 509 kts 79°
2026-05-04 04:55 -34.85391 147.28354 35023 ft 509 kts 79°
2026-05-04 04:55 -34.84998 147.36946 35031 ft 508 kts 79°
2026-05-04 04:56 -34.84598 147.45554 35022 ft 508 kts 79°
2026-05-04 04:56 -34.84195 147.54092 35032 ft 508 kts 79°
2026-05-04 04:57 -34.83783 147.62693 35034 ft 509 kts 79°
2026-05-04 04:57 -34.83365 147.71298 35029 ft 509 kts 79°
2026-05-04 04:58 -34.82940 147.79909 35032 ft 509 kts 79°
2026-05-04 04:58 -34.82511 147.88514 35035 ft 510 kts 79°
2026-05-04 04:59 -34.82072 147.97138 35014 ft 510 kts 80°
2026-05-04 04:59 -34.81631 148.05745 35019 ft 509 kts 80°
2026-05-04 05:00 -34.81183 148.14338 35031 ft 508 kts 79°
2026-05-04 05:01 -34.80505 148.27151 35027 ft 507 kts 80°
2026-05-04 05:01 -34.80043 148.35712 35026 ft 506 kts 79°
2026-05-04 05:02 -34.79576 148.44254 35038 ft 505 kts 79°
2026-05-04 05:02 -34.79104 148.52786 34872 ft 505 kts 80°
2026-05-04 05:02 -34.78866 148.57049 34622 ft 502 kts 80°
2026-05-04 05:03 -34.78633 148.61257 34384 ft 495 kts 79°
2026-05-04 05:03 -34.78400 148.65421 34139 ft 491 kts 79°
2026-05-04 05:04 -34.77691 148.77767 33341 ft 486 kts 80°
2026-05-04 05:04 -34.77454 148.81857 33082 ft 483 kts 79°
2026-05-04 05:04 -34.77217 148.85924 32824 ft 480 kts 79°
2026-05-04 05:06 -34.75589 149.13337 30500 ft 446 kts 79°
2026-05-04 05:06 -34.75360 149.17079 30143 ft 442 kts 79°
2026-05-04 05:06 -34.75136 149.20740 29711 ft 438 kts 78°
2026-05-04 05:07 -34.74909 149.24418 29313 ft 432 kts 78°
2026-05-04 05:07 -34.74686 149.28038 28923 ft 427 kts 78°
2026-05-04 05:07 -34.74464 149.31622 28517 ft 422 kts 78°
2026-05-04 05:09 -34.66417 149.56400 25970 ft 389 kts 53°
2026-05-04 05:09 -34.65151 149.59290 25596 ft 385 kts 53°
2026-05-04 05:10 -34.63901 149.62149 25209 ft 382 kts 53°
2026-05-04 05:10 -34.62657 149.64988 24845 ft 379 kts 53°
2026-05-04 05:10 -34.61422 149.67804 24465 ft 377 kts 53°
2026-05-04 05:10 -34.60186 149.70618 24090 ft 377 kts 53°
2026-05-04 05:11 -34.58955 149.73421 23708 ft 376 kts 53°
2026-05-04 05:11 -34.57715 149.76234 23288 ft 380 kts 53°
2026-05-04 05:11 -34.56479 149.79038 22888 ft 382 kts 54°
2026-05-04 05:11 -34.55231 149.81878 22492 ft 380 kts 54°
2026-05-04 05:12 -34.53996 149.84690 22100 ft 376 kts 54°
2026-05-04 05:12 -34.52770 149.87479 21724 ft 372 kts 54°
2026-05-04 05:12 -34.51555 149.90235 21340 ft 368 kts 54°
2026-05-04 05:12 -34.50354 149.92954 20995 ft 364 kts 54°
2026-05-04 05:13 -34.49163 149.95649 20627 ft 361 kts 54°
2026-05-04 05:13 -34.47981 149.98323 20269 ft 358 kts 54°
2026-05-04 05:13 -34.46808 150.00974 19910 ft 355 kts 54°
2026-05-04 05:13 -34.45658 150.03570 19567 ft 352 kts 54°
2026-05-04 05:14 -34.44502 150.06176 19213 ft 350 kts 55°
2026-05-04 05:14 -34.43352 150.08769 18861 ft 348 kts 55°
2026-05-04 05:14 -34.42206 150.11345 18505 ft 348 kts 55°
2026-05-04 05:14 -34.41064 150.13921 18131 ft 346 kts 55°
2026-05-04 05:15 -34.39929 150.16481 17760 ft 343 kts 55°
2026-05-04 05:15 -34.38801 150.19018 17377 ft 340 kts 55°
2026-05-04 05:15 -34.37684 150.21530 17035 ft 337 kts 55°
2026-05-04 05:15 -34.36578 150.24016 16698 ft 333 kts 55°
2026-05-04 05:16 -34.35483 150.26474 16356 ft 330 kts 55°
2026-05-04 05:16 -34.34394 150.28915 16023 ft 327 kts 55°
2026-05-04 05:16 -34.33317 150.31331 15697 ft 325 kts 55°
2026-05-04 05:16 -34.32245 150.33731 15352 ft 325 kts 55°
2026-05-04 05:17 -34.31177 150.36121 15050 ft 328 kts 55°
2026-05-04 05:17 -34.30086 150.38556 14701 ft 331 kts 55°
2026-05-04 05:17 -34.28996 150.40996 14381 ft 329 kts 55°
2026-05-04 05:17 -34.27912 150.43418 14045 ft 326 kts 55°
2026-05-04 05:18 -34.26834 150.45827 13712 ft 324 kts 55°
2026-05-04 05:18 -34.25767 150.48211 13352 ft 321 kts 55°
2026-05-04 05:18 -34.24707 150.50580 13050 ft 319 kts 55°
2026-05-04 05:18 -34.23642 150.52950 13013 ft 321 kts 55°
2026-05-04 05:19 -34.22592 150.55297 12984 ft 311 kts 55°
2026-05-04 05:19 -34.21590 150.57544 12971 ft 297 kts 54°
2026-05-04 05:19 -34.20631 150.59688 12962 ft 283 kts 54°
2026-05-04 05:19 -34.19709 150.61743 12747 ft 276 kts 54°
2026-05-04 05:20 -34.18776 150.63802 11824 ft 291 kts 54°
2026-05-04 05:20 -34.17773 150.66012 10891 ft 306 kts 55°
2026-05-04 05:20 -34.16781 150.68218 10533 ft 301 kts 54°
2026-05-04 05:20 -34.15779 150.70446 10267 ft 302 kts 55°
2026-05-04 05:21 -34.14780 150.72672 10065 ft 298 kts 55°
2026-05-04 05:21 -34.13807 150.74842 9936 ft 290 kts 55°
2026-05-04 05:21 -34.12860 150.76952 9647 ft 286 kts 55°
2026-05-04 05:21 -34.11910 150.79055 9356 ft 284 kts 55°
2026-05-04 05:22 -34.10972 150.81129 9084 ft 282 kts 55°
2026-05-04 05:22 -34.10036 150.83201 8812 ft 279 kts 56°
2026-05-04 05:22 -34.09115 150.85247 8602 ft 277 kts 55°
2026-05-04 05:22 -34.08194 150.87293 8392 ft 278 kts 56°
2026-05-04 05:23 -34.07267 150.89349 8163 ft 279 kts 56°
2026-05-04 05:23 -34.06341 150.91407 7929 ft 278 kts 55°
2026-05-04 05:23 -34.05416 150.93457 7717 ft 278 kts 56°
2026-05-04 05:23 -34.04491 150.95504 7503 ft 279 kts 56°
2026-05-04 05:24 -34.03572 150.97562 7278 ft 280 kts 59°
2026-05-04 05:24 -34.03142 150.99884 7035 ft 291 kts 89°
2026-05-04 05:24 -34.03727 151.02220 6811 ft 297 kts 121°
2026-05-04 05:24 -34.04443 151.03339 6707 ft 295 kts 132°
2026-05-04 05:25 -34.05862 151.05125 6463 ft 296 kts 133°
2026-05-04 05:25 -34.07313 151.06886 6204 ft 295 kts 139°
2026-05-04 05:25 -34.09090 151.08059 5932 ft 291 kts 167°
2026-05-04 05:25 -34.11053 151.08571 5759 ft 288 kts 172°
2026-05-04 05:26 -34.13023 151.09054 5492 ft 289 kts 171°
2026-05-04 05:26 -34.14991 151.09548 5259 ft 288 kts 171°
2026-05-04 05:26 -34.16741 151.09996 5056 ft 287 kts 171°
2026-05-04 05:26 -34.18691 151.10500 4816 ft 286 kts 171°
2026-05-04 05:27 -34.20560 151.11099 4592 ft 286 kts 156°
2026-05-04 05:28 -34.19061 151.21837 3487 ft 184 kts 29°
2026-05-04 05:29 -34.18031 151.22702 3245 ft 175 kts 18°
2026-05-04 05:29 -34.16931 151.23080 3108 ft 163 kts
2026-05-04 05:29 -34.15831 151.23018 2993 ft 158 kts 346°
2026-05-04 05:29 -34.14724 151.22786 2936 ft 164 kts 346°
2026-05-04 05:31 -34.07582 151.20974 2269 ft 133 kts 346°
2026-05-04 05:31 -34.06682 151.20739 2104 ft 132 kts 346°
2026-05-04 05:32 -34.05776 151.20503 1923 ft 134 kts 347°
2026-05-04 05:32 -34.04869 151.20267 1737 ft 131 kts 347°
2026-05-04 05:32 -34.03983 151.20035 1576 ft 132 kts 349°
2026-05-04 05:33 -34.02151 151.19558 1211 ft 139 kts 350°
2026-05-04 05:33 -34.01220 151.19316 1028 ft 138 kts 351°
2026-05-04 05:33 -34.00288 151.19057 856 ft 138 kts 350°
2026-05-04 05:33 -33.99340 151.18821 667 ft 137 kts 354°
2026-05-04 05:34 -33.98391 151.18585 493 ft 143 kts 349°
2026-05-04 05:34 -33.97425 151.18317 303 ft 143 kts 350°
2026-05-04 05:34 -33.96466 151.18071 93 ft 139 kts 350°
2026-05-04 05:34 -33.95564 151.17841 28 ft 121 kts 349°
2026-05-04 05:35 -33.94899 151.17669 28 ft 64 kts 348°
2026-05-04 05:35 -33.94636 151.17601 29 ft 18 kts 349°
2026-05-04 05:35 -33.94546 151.17628 29 ft 10 kts 49°
2026-05-04 05:35 -33.94526 151.17693 29 ft 7 kts 76°
2026-05-04 05:36 -33.94516 151.17745 29 ft 3 kts 78°
2026-05-04 05:36 -33.94514 151.17761 29 ft 0 kts 78°
2026-05-04 05:36 -33.94513 151.17762 29 ft 0 kts 78°
2026-05-04 05:36 -33.94513 151.17763 29 ft 0 kts 78°
2026-05-04 05:38 -33.94513 151.17764 29 ft 0 kts 78°
2026-05-04 05:38 -33.94510 151.17772 29 ft 2 kts 57°
2026-05-04 05:38 -33.94479 151.17780 29 ft 7 kts 354°
2026-05-04 05:38 -33.94411 151.17759 29 ft 13 kts 346°
2026-05-04 05:39 -33.94309 151.17729 29 ft 16 kts 346°
2026-05-04 05:39 -33.94066 151.17653 27 ft 21 kts 347°
2026-05-04 05:39 -33.93921 151.17616 28 ft 21 kts 348°
2026-05-04 05:40 -33.93641 151.17544 28 ft 20 kts 348°
2026-05-04 05:40 -33.93514 151.17511 28 ft 18 kts 348°
2026-05-04 05:40 -33.93392 151.17505 29 ft 17 kts 353°
2026-05-04 05:41 -33.93276 151.17477 29 ft 17 kts 346°
2026-05-04 05:41 -33.93166 151.17448 29 ft 16 kts 347°
2026-05-04 05:41 -33.93078 151.17462 29 ft 11 kts 60°
2026-05-04 05:41 -33.93035 151.17542 29 ft 12 kts 34°
2026-05-04 05:42 -33.93009 151.17611 29 ft 8 kts 98°
2026-05-04 05:42 -33.93023 151.17681 29 ft 9 kts 113°
2026-05-04 05:42 -33.93053 151.17754 29 ft 10 kts 111°
2026-05-04 05:42 -33.93068 151.17840 29 ft 8 kts 99°
2026-05-04 05:43 -33.93093 151.17873 29 ft 4 kts 180°
2026-05-04 05:43 -33.93122 151.17863 29 ft 4 kts 193°
2026-05-04 05:43 -33.93139 151.17859 29 ft 0 kts 191°
2026-05-04 05:45 -33.93147 151.17857 29 ft 0 kts 191°